Weather History for KTRK - May, 2014

Change the Weather History Date:

Friday, May 9, 2014

  Actual Average Record
Temperature  
Mean Temperature 44 °F -  
Max Temperature 55 °F 62 °F 78 °F (1992)
Min Temperature 30 °F 32 °F 19 °F (1963)
Degree Days  
Heating Degree Days 22    
Moisture  
Dew Point 32 °F    
Average Humidity 70    
Maximum Humidity 93    
Minimum Humidity 38    
Precipitation  
Precipitation 0.01 in - - ()
Sea Level Pressure  
Sea Level Pressure 30.09 in    
Wind  
Wind Speed 9 mph (SW)    
Max Wind Speed 16 mph    
Max Gust Speed 25 mph    
Visibility 10 miles    
Events Rain    
Averages and records for this station are not official NWS values.
T = Trace of Precipitation, MM = Missing Value Source: NWS Daily Summary

Daily Weather History Graph

Daily Weather History Graph

Search for Another Location

Airport or City:

Trip Planner

Search our weather history database for the weather conditions in past years. The results will help you decide how hot, cold, wet, or windy it might be!

Date:

Astronomy

May. 09, 2014 Rise Set
Actual Time 5:52 AM PDT 8:01 PM PDT
Civil Twilight 5:23 AM PDT 8:31 PM PDT
Nautical Twilight 4:46 AM PDT 9:08 PM PDT
Astronomical Twilight 4:07 AM PDT 9:47 PM PDT
Moon 3:05 PM PDT (5/9) 2:55 AM PDT (5/9)
Length of Visible Light 15h 08m
Length of Day
14h 09m
Waxing Gibbous, 74% of the Moon is Illuminated
May 9
Waxing Gibbous
May 14
Full
May 21
Last Quarter
May 28
New
Jun 5
First Quarter

Hourly Weather History & Observations

Time (PDT) Temp. Windchill Dew Point Humidity Pressure Visibility Wind Dir Wind Speed Gust Speed Precip Events Conditions
12:15 AM 41.0 °F 34.3 °F 37.4 °F 87% 30.05 in 7.0 mi SSW 11.5 mph 17.3 mph N/A Rain Rain
12:35 AM 41.0 °F 37.1 °F 37.4 °F 87% 30.04 in 10.0 mi SW 5.8 mph - 0.01 in Rain Light Rain
12:55 AM 41.0 °F 33.1 °F 37.4 °F 87% 30.04 in 10.0 mi SW 15.0 mph 19.6 mph 0.01 in Rain Light Rain
1:15 AM 41.0 °F 35.2 °F 37.4 °F 87% 30.04 in 10.0 mi SW 9.2 mph 17.3 mph N/A   Overcast
1:35 AM 41.0 °F 35.2 °F 37.4 °F 87% 30.05 in 10.0 mi SW 9.2 mph - N/A   Overcast
1:55 AM 39.2 °F 32.5 °F 35.6 °F 87% 30.05 in 10.0 mi SW 10.4 mph 23.0 mph N/A   Mostly Cloudy
2:15 AM 39.2 °F 33.0 °F 33.8 °F 81% 30.04 in 10.0 mi SW 9.2 mph - N/A   Mostly Cloudy
2:35 AM 37.4 °F 30.3 °F 33.8 °F 87% 30.04 in 10.0 mi SW 10.4 mph - N/A   Scattered Clouds
2:55 AM 39.2 °F 31.2 °F 35.6 °F 87% 30.04 in 10.0 mi SW 13.8 mph 18.4 mph N/A   Drizzle
3:15 AM 39.2 °F 32.0 °F 35.6 °F 87% 30.04 in 10.0 mi SW 11.5 mph - N/A   Light Drizzle
3:35 AM 39.2 °F 32.0 °F 35.6 °F 87% 30.05 in 10.0 mi WSW 11.5 mph - N/A Rain Light Rain
3:55 AM 37.4 °F 29.8 °F 35.6 °F 93% 30.05 in 10.0 mi SW 11.5 mph 18.4 mph N/A   Scattered Clouds
4:15 AM 37.4 °F 31.4 °F 33.8 °F 87% 30.05 in 10.0 mi SW 8.1 mph - N/A   Scattered Clouds
4:35 AM 39.2 °F 33.0 °F 33.8 °F 81% 30.06 in 10.0 mi SW 9.2 mph - N/A   Light Drizzle
4:55 AM 37.4 °F 31.4 °F 33.8 °F 87% 30.05 in 10.0 mi SW 8.1 mph - N/A   Mostly Cloudy
5:15 AM 37.4 °F 30.8 °F 33.8 °F 87% 30.05 in 10.0 mi SW 9.2 mph - N/A   Overcast
5:35 AM 37.4 °F 32.1 °F 33.8 °F 87% 30.06 in 10.0 mi SW 6.9 mph - N/A   Light Drizzle
5:55 AM 37.4 °F 32.1 °F 33.8 °F 87% 30.07 in 10.0 mi SW 6.9 mph - N/A   Mostly Cloudy
6:15 AM 37.4 °F - 33.8 °F 87% 30.07 in 10.0 mi Calm Calm - N/A   Mostly Cloudy
6:35 AM 37.4 °F 34.9 °F 33.8 °F 87% 30.07 in 10.0 mi SW 3.5 mph - N/A   Overcast
6:50 AM 39.2 °F 37.0 °F 35.6 °F 87% 30.07 in 10.0 mi South 3.5 mph - N/A   Overcast
7:45 AM 42.8 °F 40.1 °F 35.6 °F 76% 30.08 in 10.0 mi SSW 4.6 mph - N/A   Scattered Clouds
8:45 AM 44.6 °F 40.7 °F 35.6 °F 71% 30.10 in 10.0 mi SW 6.9 mph - N/A   Mostly Cloudy
9:45 AM 48.2 °F - 33.8 °F 58% 30.10 in 10.0 mi SSW 9.2 mph 18.4 mph N/A   Mostly Cloudy
10:50 AM 48.2 °F - 32.0 °F 54% 30.12 in 10.0 mi West 15.0 mph 19.6 mph N/A   Scattered Clouds
11:50 AM 51.8 °F - 32.0 °F 47% 30.11 in 10.0 mi West 15.0 mph 20.7 mph N/A   Scattered Clouds
12:45 PM 51.8 °F - 30.2 °F 44% 30.11 in - West 11.5 mph 19.6 mph N/A   Scattered Clouds
1:50 PM 53.6 °F - 30.2 °F 41% 30.11 in 10.0 mi SW 15.0 mph 24.2 mph N/A   Scattered Clouds
2:50 PM 55.4 °F - 32.0 °F 41% 30.11 in 10.0 mi SW 12.7 mph 24.2 mph N/A   Scattered Clouds
3:45 PM 55.4 °F - 30.2 °F 38% 30.11 in 10.0 mi West 16.1 mph 24.2 mph N/A   Scattered Clouds
4:55 PM 53.6 °F - 30.2 °F 41% 30.10 in 10.0 mi WSW 10.4 mph 20.7 mph N/A   Scattered Clouds
5:50 PM 53.6 °F - 30.2 °F 41% 30.10 in 10.0 mi WSW 10.4 mph 16.1 mph N/A   Scattered Clouds
6:15 PM 51.8 °F - 30.2 °F 44% 30.10 in 10.0 mi West 12.7 mph 18.4 mph N/A   Clear
6:35 PM 50.0 °F - 28.4 °F 43% 30.10 in 10.0 mi West 12.7 mph 17.3 mph N/A   Clear
6:55 PM 48.2 °F - 28.4 °F 46% 30.10 in 10.0 mi West 11.5 mph 25.3 mph N/A   Clear
7:15 PM 46.4 °F 41.1 °F 30.2 °F 53% 30.10 in 10.0 mi West 11.5 mph 18.4 mph N/A   Clear
7:35 PM 44.6 °F 40.7 °F 32.0 °F 61% 30.11 in 10.0 mi SW 6.9 mph - N/A   Clear
7:55 PM 42.8 °F 41.1 °F 30.2 °F 61% 30.11 in 10.0 mi SW 3.5 mph - N/A   Clear
8:15 PM 42.8 °F 39.3 °F 30.2 °F 61% 30.11 in 10.0 mi WSW 5.8 mph - N/A   Clear
8:35 PM 42.8 °F 38.0 °F 30.2 °F 61% 30.11 in 10.0 mi WSW 8.1 mph - N/A   Clear
8:55 PM 41.0 °F 38.0 °F 30.2 °F 65% 30.12 in 10.0 mi WSW 4.6 mph - N/A   Clear
9:15 PM 41.0 °F 39.0 °F 30.2 °F 65% 30.12 in 10.0 mi SW 3.5 mph - N/A   Clear
9:35 PM 39.2 °F - 28.4 °F 65% 30.13 in 10.0 mi Calm Calm - N/A   Clear
9:55 PM 39.2 °F - 28.4 °F 65% 30.13 in 10.0 mi Calm Calm - N/A   Clear
10:15 PM 39.2 °F - 28.4 °F 65% 30.14 in 10.0 mi Calm Calm - N/A   Clear
10:35 PM 37.4 °F 34.9 °F 28.4 °F 70% 30.14 in 10.0 mi West 3.5 mph - N/A   Clear
10:55 PM 32.0 °F 27.5 °F 26.6 °F 80% 30.14 in 10.0 mi SE 4.6 mph - N/A   Clear
11:15 PM 32.0 °F 25.6 °F 26.6 °F 80% 30.13 in 10.0 mi SE 6.9 mph - N/A   Clear
11:35 PM 32.0 °F 27.5 °F 26.6 °F 80% 30.13 in 10.0 mi SE 4.6 mph - N/A   Clear
11:55 PM 30.2 °F 25.4 °F 26.6 °F 86% 30.13 in 10.0 mi SSE 4.6 mph - N/A   Clear